Weather History for KMTH - September, 2012

Change the Weather History Date:

Tuesday, September 25, 2012

  Actual Average Record
Temperature  
Mean Temperature 82 °F 84 °F  
Max Temperature 85 °F 89 °F 93 °F (2013)
Min Temperature 79 °F 78 °F 73 °F (1999)
Degree Days  
Heating Degree Days 0 0  
Month to date heating degree days 0 0  
Since 1 July heating degree days 0 0  
Cooling Degree Days 17 18  
Month to date cooling degree days 493 477  
Year to date cooling degree days 4152 3863  
Growing Degree Days 31 (Base 50)    
Moisture  
Dew Point 76 °F    
Average Humidity 80    
Maximum Humidity 85    
Minimum Humidity 74    
Precipitation  
Precipitation 0.03 in 0.21 in 1.37 in (1999)
Month to date precipitation 4.18 6.74  
Year to date precipitation 39.54 35.56  
Snow  
Snow 0.00 in - - ()
Month to date snowfall 0.0  
Since 1 July snowfall 0.0  
Since 1 September snowfall 0.0  
Snow Depth 0.00 in    
Sea Level Pressure  
Sea Level Pressure 30.02 in    
Wind  
Wind Speed 7 mph (NE)    
Max Wind Speed 14 mph    
Max Gust Speed 16 mph    
Visibility 10 miles    
Events Rain    
T = Trace of Precipitation, MM = Missing Value Source: NWS Daily Summary

Daily Weather History Graph

Daily Weather History Graph

Search for Another Location

Airport or City:

Trip Planner

Search our weather history database for the weather conditions in past years. The results will help you decide how hot, cold, wet, or windy it might be!

Date:

Astronomy

Sep. 25, 2012 Rise Set
Actual Time 7:14 AM EDT 7:16 PM EDT
Civil Twilight 6:51 AM EDT 7:39 PM EDT
Nautical Twilight 6:24 AM EDT 8:06 PM EDT
Astronomical Twilight 5:58 AM EDT 8:32 PM EDT
Moon 4:19 PM EDT (9/25) 2:59 AM EDT (9/25)
Length of Visible Light 12h 48m
Length of Day
12h 02m
Waxing Gibbous, 80% of the Moon is Illuminated
Sep 25
Waxing Gibbous
Sep 29
Full
Oct 8
Last Quarter
Oct 15
New
Oct 21
First Quarter

Hourly Weather History & Observations

Time (EDT) Temp. Heat Index Dew Point Humidity Pressure Visibility Wind Dir Wind Speed Gust Speed Precip Events Conditions
12:53 AM 81.0 °F 85.8 °F 73.0 °F 77% 30.02 in 10.0 mi NE 8.1 mph - N/A   Clear
1:53 AM 81.0 °F 86.7 °F 75.0 °F 82% 30.01 in 10.0 mi NE 10.4 mph - N/A   Clear
2:53 AM 80.1 °F 83.8 °F 72.0 °F 76% 29.99 in 10.0 mi NE 5.8 mph - N/A   Clear
3:53 AM 80.1 °F 85.4 °F 75.9 °F 87% 29.99 in 10.0 mi NE 8.1 mph - N/A   Clear
4:53 AM 80.1 °F 85.4 °F 75.9 °F 87% 29.98 in 10.0 mi NE 10.4 mph - N/A   Clear
5:53 AM 80.1 °F 85.4 °F 75.9 °F 87% 29.99 in 10.0 mi NE 9.2 mph - N/A   Clear
6:53 AM 80.1 °F 85.4 °F 75.9 °F 87% 30.00 in 10.0 mi NE 8.1 mph - N/A   Clear
7:53 AM 80.1 °F 85.4 °F 75.9 °F 87% 30.01 in 9.0 mi NE 9.2 mph - N/A   Clear
8:53 AM 81.0 °F 87.3 °F 75.9 °F 85% 30.03 in 10.0 mi NNE 10.4 mph - N/A   Clear
9:53 AM 81.0 °F 87.3 °F 75.9 °F 85% 30.04 in 10.0 mi NE 11.5 mph - N/A   Clear
10:53 AM 82.0 °F 89.4 °F 75.9 °F 82% 30.06 in 10.0 mi NNE 9.2 mph - N/A   Clear
11:53 AM 82.0 °F 91.0 °F 78.1 °F 88% 30.06 in 9.0 mi NE 6.9 mph - 0.00 in Rain Light Rain
12:53 PM 82.9 °F 91.8 °F 77.0 °F 82% 30.05 in 10.0 mi ENE 8.1 mph - 0.00 in   Scattered Clouds
1:53 PM 82.0 °F 91.6 °F 79.0 °F 90% 30.03 in 7.0 mi Calm Calm - 0.03 in Rain Light Rain
3:53 PM 82.9 °F 91.8 °F 77.0 °F 82% 29.99 in 10.0 mi NE 6.9 mph - 0.00 in   Partly Cloudy
4:53 PM 82.9 °F 91.8 °F 77.0 °F 82% 29.99 in 10.0 mi ENE 4.6 mph - N/A   Clear
5:53 PM 82.9 °F 89.4 °F 73.9 °F 74% 30.01 in 10.0 mi ENE 6.9 mph - N/A   Clear
6:53 PM 82.9 °F 89.4 °F 73.9 °F 74% 30.01 in 10.0 mi ENE 8.1 mph - N/A   Clear
7:53 PM 82.9 °F 89.4 °F 73.9 °F 74% 30.01 in 10.0 mi ENE 5.8 mph - N/A   Clear
8:53 PM 82.0 °F 88.6 °F 75.0 °F 79% 30.04 in 10.0 mi ENE 4.6 mph - N/A   Clear
9:53 PM 82.0 °F 88.6 °F 75.0 °F 79% 30.06 in 10.0 mi ENE 5.8 mph - N/A   Clear
10:53 PM 82.0 °F 88.6 °F 75.0 °F 79% 30.06 in 10.0 mi NE 8.1 mph - N/A   Clear
11:53 PM 82.0 °F 90.2 °F 77.0 °F 85% 30.05 in 10.0 mi ENE 8.1 mph - N/A   Clear